When you browse on this site, cookies collect data to enhance your experience and personalize the content and advertising you see.
Visit our Privacy Policy to learn more. By continuing to use the site, you agree to this use of cookies and data.
EN

Hourly Weather Debalcevo

Today, 12 July, Sunday

Time Temperature Precipitation Wind Pressure Humidity
00:00 +19°C° 0 mm 3 mps 735 mmHg 61%
01:00 +18°C° 0 mm 3 mps 734 mmHg 65%
02:00 +18°C° 0 mm 3 mps 734 mmHg 68%
03:00 +18°C° 0 mm 3 mps 734 mmHg 70%
04:00 +18°C° 0 mm 3 mps 733 mmHg 71%
05:00 +18°C° 0 mm 3 mps 733 mmHg 73%
06:00 +18°C° 0 mm 4 mps 733 mmHg 74%
07:00 +20°C° 0 mm 4 mps 733 mmHg 71%
08:00 +22°C° 0 mm 4 mps 733 mmHg 68%
09:00 +25°C° 0 mm 4 mps 732 mmHg 62%
10:00 +27°C° 0 mm 5 mps 732 mmHg 58%
11:00 +29°C° 0 mm 5 mps 732 mmHg 54%
12:00 +32°C° 0 mm 5 mps 732 mmHg 50%
13:00 +33°C° 0 mm 5 mps 732 mmHg 47%
14:00 +34°C° 0 mm 5 mps 731 mmHg 44%
15:00 +34°C° 0 mm 4 mps 731 mmHg 40%
16:00 +34°C° 0 mm 3 mps 730 mmHg 41%
17:00 +34°C° 0 mm 3 mps 730 mmHg 42%
18:00 +32°C° 0 mm 2 mps 729 mmHg 43%
19:00 +30°C° 0.2 mm 3 mps 729 mmHg 49%
20:00 +28°C° 0.2 mm 4 mps 729 mmHg 55%
21:00 +26°C° 0.2 mm 5 mps 729 mmHg 61%
22:00 +23°C° 0.2 mm 5 mps 729 mmHg 68%
23:00 +22°C° 0.2 mm 4 mps 728 mmHg 74%

Tomorrow, 13 July, Monday

Time Temperature Precipitation Wind Pressure Humidity
00:00 +20°C° 0.2 mm 4 mps 728 mmHg 81%
01:00 +20°C° 0.2 mm 4 mps 728 mmHg 80%
02:00 +20°C° 0.2 mm 3 mps 728 mmHg 79%
03:00 +20°C° 0.2 mm 3 mps 728 mmHg 78%
04:00 +20°C° 0 mm 3 mps 727 mmHg 79%
05:00 +20°C° 0 mm 2 mps 727 mmHg 80%
06:00 +20°C° 0 mm 2 mps 726 mmHg 80%
07:00 +21°C° 0.1 mm 2 mps 727 mmHg 75%
08:00 +24°C° 0.1 mm 1 mps 727 mmHg 70%
09:00 +25°C° 0.1 mm 1 mps 727 mmHg 65%
10:00 +27°C° 0 mm 2 mps 727 mmHg 58%
11:00 +29°C° 0 mm 3 mps 727 mmHg 52%
12:00 +31°C° 0 mm 3 mps 727 mmHg 46%
13:00 +30°C° 0.1 mm 4 mps 727 mmHg 44%
14:00 +30°C° 0.1 mm 5 mps 727 mmHg 42%
15:00 +30°C° 0.1 mm 6 mps 727 mmHg 40%
16:00 +29°C° 0.1 mm 5 mps 727 mmHg 43%
17:00 +29°C° 0.1 mm 5 mps 726 mmHg 46%
18:00 +28°C° 0.1 mm 4 mps 726 mmHg 49%
19:00 +26°C° 0 mm 3 mps 726 mmHg 56%
20:00 +24°C° 0 mm 2 mps 726 mmHg 62%
21:00 +23°C° 0 mm 1 mps 726 mmHg 69%
22:00 +22°C° 0 mm 1 mps 726 mmHg 72%
23:00 +22°C° 0 mm 1 mps 725 mmHg 74%

Day after tomorrow, 14 July, Tuesday

Time Temperature Precipitation Wind Pressure Humidity
00:00 +21°C° 0 mm 1 mps 725 mmHg 76%
01:00 +21°C° 0 mm 1 mps 725 mmHg 79%
02:00 +20°C° 0 mm 1 mps 725 mmHg 82%
03:00 +20°C° 0 mm 1 mps 725 mmHg 85%
04:00 +20°C° 0.1 mm 1 mps 725 mmHg 86%
05:00 +19°C° 0.1 mm 2 mps 725 mmHg 87%
06:00 +19°C° 0.1 mm 2 mps 725 mmHg 88%
07:00 +19°C° 0 mm 3 mps 726 mmHg 86%
08:00 +20°C° 0 mm 4 mps 726 mmHg 84%
09:00 +20°C° 0 mm 4 mps 726 mmHg 82%
10:00 +20°C° 0 mm 4 mps 726 mmHg 79%
11:00 +20°C° 0 mm 4 mps 727 mmHg 77%
12:00 +20°C° 0 mm 4 mps 727 mmHg 74%
13:00 +21°C° 0 mm 4 mps 727 mmHg 73%
14:00 +21°C° 0 mm 5 mps 727 mmHg 71%
15:00 +21°C° 0 mm 5 mps 727 mmHg 70%
16:00 +21°C° 0 mm 5 mps 727 mmHg 67%
17:00 +21°C° 0 mm 5 mps 728 mmHg 65%
18:00 +21°C° 0 mm 5 mps 728 mmHg 62%
19:00 +20°C° 0.1 mm 5 mps 728 mmHg 69%
20:00 +18°C° 0.1 mm 4 mps 728 mmHg 76%
21:00 +17°C° 0.1 mm 4 mps 729 mmHg 83%
22:00 +15°C° 0 mm 4 mps 729 mmHg 86%
23:00 +14°C° 0 mm 4 mps 728 mmHg 89%

15 July, Wednesday

Time Temperature Precipitation Wind Pressure Humidity
00:00 +14°C° 0 mm 4 mps 728 mmHg 91%
01:00 +14°C° 0 mm 4 mps 729 mmHg 92%
02:00 +13°C° 0 mm 4 mps 729 mmHg 92%
03:00 +13°C° 0 mm 4 mps 729 mmHg 92%
04:00 +13°C° 0 mm 5 mps 729 mmHg 90%
05:00 +14°C° 0 mm 6 mps 729 mmHg 88%
06:00 +14°C° 0 mm 6 mps 729 mmHg 86%
07:00 +15°C° 0 mm 6 mps 730 mmHg 83%
08:00 +15°C° 0 mm 6 mps 730 mmHg 81%
09:00 +16°C° 0 mm 6 mps 731 mmHg 78%
10:00 +19°C° 0 mm 6 mps 731 mmHg 72%
11:00 +20°C° 0 mm 6 mps 731 mmHg 65%
12:00 +22°C° 0 mm 6 mps 732 mmHg 59%
13:00 +22°C° 0.1 mm 6 mps 732 mmHg 54%
14:00 +23°C° 0.1 mm 6 mps 732 mmHg 49%
15:00 +24°C° 0.1 mm 6 mps 732 mmHg 45%
16:00 +24°C° 0 mm 6 mps 732 mmHg 45%
17:00 +23°C° 0 mm 5 mps 732 mmHg 46%
18:00 +23°C° 0 mm 5 mps 732 mmHg 46%
19:00 +21°C° 0 mm 4 mps 732 mmHg 50%
20:00 +20°C° 0 mm 3 mps 733 mmHg 54%
21:00 +18°C° 0 mm 2 mps 733 mmHg 58%
22:00 +18°C° 0 mm 2 mps 733 mmHg 61%
23:00 +17°C° 0 mm 2 mps 733 mmHg 64%

16 July, Thursday

Time Temperature Precipitation Wind Pressure Humidity
00:00 +16°C° 0 mm 1 mps 732 mmHg 68%
01:00 +16°C° 0 mm 1 mps 733 mmHg 69%
02:00 +16°C° 0 mm 1 mps 733 mmHg 71%
03:00 +15°C° 0 mm 2 mps 733 mmHg 73%
04:00 +16°C° 0 mm 1 mps 733 mmHg 73%
05:00 +16°C° 0 mm 1 mps 733 mmHg 74%
06:00 +16°C° 0 mm 1 mps 732 mmHg 74%
07:00 +19°C° 0 mm 1 mps 733 mmHg 67%
08:00 +20°C° 0 mm 2 mps 733 mmHg 60%
09:00 +23°C° 0 mm 2 mps 733 mmHg 53%
10:00 +23°C° 0 mm 2 mps 733 mmHg 50%
11:00 +24°C° 0 mm 2 mps 733 mmHg 46%
12:00 +25°C° 0 mm 2 mps 733 mmHg 42%
13:00 +26°C° 0 mm 3 mps 733 mmHg 42%
14:00 +26°C° 0 mm 3 mps 733 mmHg 41%
15:00 +26°C° 0 mm 3 mps 733 mmHg 41%
16:00 +26°C° 0 mm 3 mps 732 mmHg 43%
17:00 +26°C° 0 mm 3 mps 732 mmHg 44%
18:00 +25°C° 0 mm 3 mps 732 mmHg 46%
19:00 +24°C° 0 mm 2 mps 732 mmHg 50%
20:00 +21°C° 0 mm 2 mps 732 mmHg 55%
21:00 +20°C° 0 mm 2 mps 732 mmHg 59%
22:00 +19°C° 0 mm 2 mps 732 mmHg 60%
23:00 +19°C° 0 mm 1 mps 732 mmHg 62%

17 July, Friday

Time Temperature Precipitation Wind Pressure Humidity
00:00 +19°C° 0 mm 1 mps 731 mmHg 63%
01:00 +18°C° 0 mm 1 mps 731 mmHg 64%
02:00 +18°C° 0 mm 1 mps 731 mmHg 64%
03:00 +16°C° 0 mm 1 mps 731 mmHg 65%
04:00 +18°C° 0 mm 1 mps 731 mmHg 65%
05:00 +18°C° 0 mm 1 mps 731 mmHg 65%
06:00 +18°C° 0 mm 1 mps 732 mmHg 65%
07:00 +20°C° 0 mm 1 mps 732 mmHg 59%
08:00 +22°C° 0 mm 1 mps 732 mmHg 54%
09:00 +24°C° 0 mm 2 mps 732 mmHg 48%
10:00 +25°C° 0 mm 1 mps 732 mmHg 45%
11:00 +26°C° 0 mm 1 mps 732 mmHg 41%
12:00 +28°C° 0 mm 1 mps 732 mmHg 38%
13:00 +28°C° 0 mm 1 mps 732 mmHg 37%
14:00 +28°C° 0 mm 1 mps 732 mmHg 35%
15:00 +29°C° 0 mm 1 mps 732 mmHg 34%
16:00 +28°C° 0 mm 1 mps 732 mmHg 35%
17:00 +28°C° 0 mm 2 mps 732 mmHg 36%
18:00 +28°C° 0 mm 2 mps 732 mmHg 37%
19:00 +26°C° 0 mm 2 mps 732 mmHg 42%
20:00 +24°C° 0 mm 2 mps 732 mmHg 47%
21:00 +21°C° 0 mm 2 mps 732 mmHg 52%
22:00 +21°C° 0 mm 2 mps 732 mmHg 55%
23:00 +20°C° 0 mm 2 mps 732 mmHg 58%
Show more